StationID,Date,MaxTemp,MinTemp,Precipitation,Snowfall,SnowDepth
"USR0000AZAR","1989-09-25",57.02,51.98,,,
"USR0000AZAR","1989-09-26",55.04,44.96,,,
"USR0000AZAR","1989-09-27",51.98,44.96,,,
"USR0000AZAR","1989-09-28",53.06,48.02,,,
"USR0000AZAR","1989-09-29",55.94,44.96,,,
"USR0000AZAR","1989-09-30",57.02,42.98,,,
"USR0000AZAR","1989-10-01",51.98,42.08,,,
"USR0000AZAR","1989-10-02",53.96,48.02,,,
"USR0000AZAR","1989-10-03",51.98,44.96,,,
"USR0000AZAR","1989-10-04",50.00,41.00,,,
"USR0000AZAR","1989-10-05",55.04,39.92,,,
"USR0000AZAR","1989-10-06",51.08,48.02,,,
"USR0000AZAR","1989-10-07",48.02,42.98,,,
"USR0000AZAR","1989-10-08",48.92,42.08,,,
"USR0000AZAR","1989-10-09",48.92,39.92,,,
"USR0000AZAR","1989-10-10",44.06,39.92,,,
"USR0000AZAR","1989-10-11",42.98,37.94,,,
"USR0000AZAR","1989-10-12",46.94,39.92,,,
"USR0000AZAR","1989-10-13",46.04,33.98,,,
"USR0000AZAR","1989-10-14",44.06,33.08,,,
"USR0000AZAR","1989-10-15",51.98,35.96,,,
"USR0000AZAR","1989-10-16",48.02,35.96,,,
"USR0000AZAR","1989-10-17",48.02,41.00,,,
"USR0000AZAR","1989-10-18",46.04,41.00,,,
"USR0000AZAR","1989-10-19",48.92,39.92,,,
"USR0000AZAR","1989-10-20",42.98,33.08,,,
"USR0000AZAR","1989-10-21",48.02,32.00,,,
"USR0000AZAR","1989-10-22",50.00,37.94,,,
"USR0000AZAR","1989-10-23",48.92,35.06,,,
"USR0000AZAR","1989-10-24",42.98,33.98,,,
"USR0000AZAR","1989-10-25",41.00,33.08,,,
"USR0000AZAR","1989-10-26",50.00,30.02,,,
"USR0000AZAR","1989-10-27",39.92,28.94,,,
"USR0000AZAR","1989-10-28",44.96,37.94,,,
"USR0000AZAR","1989-10-29",44.06,37.94,,,
"USR0000AZAR","1989-10-30",48.02,33.98,,,
"USR0000AZAR","1989-10-31",44.06,37.94,,,
"USR0000AZAR","1989-11-01",46.94,44.06,,,
"USR0000AZAR","1989-11-02",48.02,46.94,,,
"USR0000AZAR","1989-11-03",48.02,42.08,,,
"USR0000AZAR","1989-11-04",42.98,41.00,,,
"USR0000AZAR","1989-11-05",44.06,35.96,,,
"USR0000AZAR","1989-11-06",39.02,30.92,,,
"USR0000AZAR","1989-11-07",42.08,30.92,,,
"USR0000AZAR","1989-11-08",35.96,30.92,,,
"USR0000AZAR","1989-11-09",33.98,28.94,,,
"USR0000AZAR","1989-11-10",30.92,26.06,,,
"USR0000AZAR","1989-11-11",30.92,19.04,,,
"USR0000AZAR","1989-11-12",30.02,19.04,,,
"USR0000AZAR","1989-11-13",35.06,26.06,,,
"USR0000AZAR","1989-11-14",35.96,30.02,,,
"USR0000AZAR","1989-11-15",42.08,30.92,,,
"USR0000AZAR","1989-11-16",42.98,41.00,,,
"USR0000AZAR","1989-11-17",44.06,39.92,,,
"USR0000AZAR","1989-11-18",41.00,32.00,,,
"USR0000AZAR","1989-11-19",33.98,32.00,,,
"USR0000AZAR","1989-11-20",35.06,28.04,,,
"USR0000AZAR","1989-11-21",32.00,26.96,,,
"USR0000AZAR","1989-11-22",39.02,32.00,,,
"USR0000AZAR","1989-11-23",37.04,30.92,,,
"USR0000AZAR","1989-11-24",33.98,32.00,,,
"USR0000AZAR","1989-11-25",33.08,30.02,,,
"USR0000AZAR","1989-11-26",35.06,30.92,,,
"USR0000AZAR","1989-11-27",44.96,35.06,,,
"USR0000AZAR","1989-11-28",39.02,33.98,,,
"USR0000AZAR","1989-11-29",39.02,33.08,,,
"USR0000AZAR","1989-11-30",41.00,33.98,,,
"USR0000AZAR","1989-12-01",48.02,39.02,,,
"USR0000AZAR","1989-12-02",46.04,44.06,,,
"USR0000AZAR","1989-12-03",46.04,39.92,,,
"USR0000AZAR","1989-12-04",44.96,39.92,,,
"USR0000AZAR","1989-12-05",42.08,33.98,,,
"USR0000AZAR","1989-12-06",37.94,32.00,,,
"USR0000AZAR","1989-12-07",37.94,32.00,,,
"USR0000AZAR","1989-12-08",37.04,33.98,,,
"USR0000AZAR","1989-12-09",35.96,30.92,,,
"USR0000AZAR","1989-12-10",39.02,30.92,,,
"USR0000AZAR","1989-12-11",39.92,39.02,,,
"USR0000AZAR","1989-12-12",42.98,39.02,,,
"USR0000AZAR","1989-12-13",44.06,42.08,,,
"USR0000AZAR","1989-12-14",42.98,41.00,,,
"USR0000AZAR","1989-12-15",42.98,41.00,,,
"USR0000AZAR","1989-12-16",42.98,35.96,,,
"USR0000AZAR","1989-12-17",39.02,33.08,,,
"USR0000AZAR","1989-12-18",39.02,33.08,,,
"USR0000AZAR","1989-12-19",39.02,21.92,,,
"USR0000AZAR","1989-12-20",28.04,21.02,,,
"USR0000AZAR","1989-12-21",39.92,28.94,,,
"USR0000AZAR","1989-12-22",44.06,39.92,,,
"USR0000AZAR","1989-12-23",44.06,42.08,,,
"USR0000AZAR","1989-12-24",46.04,42.98,,,
"USR0000AZAR","1989-12-25",46.04,42.98,,,
"USR0000AZAR","1989-12-26",44.06,37.94,,,
"USR0000AZAR","1989-12-27",39.02,33.98,,,
"USR0000AZAR","1989-12-28",37.94,35.06,,,
"USR0000AZAR","1989-12-29",37.04,33.98,,,
"USR0000AZAR","1989-12-30",42.98,37.04,,,
"USR0000AZAR","1989-12-31",39.02,28.04,,,
"USR0000AZAR","1990-01-01",28.94,19.94,,,
"USR0000AZAR","1990-01-02",35.06,24.98,,,
"USR0000AZAR","1990-01-03",35.06,32.00,,,
"USR0000AZAR","1990-01-04",37.04,28.94,,,
"USR0000AZAR","1990-01-05",39.02,33.08,,,
"USR0000AZAR","1990-01-06",37.94,35.06,,,
"USR0000AZAR","1990-01-07",39.02,33.08,,,
"USR0000AZAR","1990-01-08",37.94,32.00,,,
"USR0000AZAR","1990-01-09",32.00,24.98,,,
"USR0000AZAR","1990-01-10",35.06,26.06,,,
"USR0000AZAR","1990-01-11",37.94,30.92,,,
"USR0000AZAR","1990-01-12",33.08,28.94,,,
"USR0000AZAR","1990-01-13",33.08,24.98,,,
"USR0000AZAR","1990-01-14",35.06,30.92,,,
"USR0000AZAR","1990-01-15",32.00,24.08,,,
"USR0000AZAR","1990-01-16",32.00,21.92,,,
"USR0000AZAR","1990-01-17",37.04,21.92,,,
"USR0000AZAR","1990-01-18",39.02,37.04,,,
"USR0000AZAR","1990-01-19",37.94,35.06,,,
"USR0000AZAR","1990-01-20",39.02,35.06,,,
"USR0000AZAR","1990-01-21",35.96,32.00,,,
"USR0000AZAR","1990-01-22",33.98,30.02,,,
"USR0000AZAR","1990-01-23",32.00,28.94,,,
"USR0000AZAR","1990-01-24",30.92,24.98,,,
"USR0000AZAR","1990-01-25",30.92,21.02,,,
"USR0000AZAR","1990-01-26",30.02,24.98,,,
"USR0000AZAR","1990-01-27",32.00,24.08,,,
"USR0000AZAR","1990-01-28",30.92,19.94,,,
"USR0000AZAR","1990-01-29",19.94,6.98,,,
"USR0000AZAR","1990-01-30",8.06,1.04,,,
"USR0000AZAR","1990-01-31",10.04,1.94,,,
"USR0000AZAR","1990-02-01",24.98,8.06,,,
"USR0000AZAR","1990-02-02",33.98,26.06,,,
"USR0000AZAR","1990-02-03",33.98,28.94,,,
"USR0000AZAR","1990-02-04",33.98,30.02,,,
"USR0000AZAR","1990-02-05",35.96,30.92,,,
"USR0000AZAR","1990-02-06",30.92,19.94,,,
"USR0000AZAR","1990-02-07",28.94,21.02,,,
"USR0000AZAR","1990-02-08",32.00,21.92,,,
"USR0000AZAR","1990-02-09",33.08,30.02,,,
"USR0000AZAR","1990-02-10",33.08,21.92,,,
"USR0000AZAR","1990-02-11",28.94,19.94,,,
"USR0000AZAR","1990-02-12",21.02,8.06,,,
"USR0000AZAR","1990-02-13",26.96,8.06,,,
"USR0000AZAR","1990-02-14",32.00,23.00,,,
"USR0000AZAR","1990-02-15",21.92,6.08,,,
"USR0000AZAR","1990-02-16",23.00,6.08,,,
"USR0000AZAR","1990-02-17",26.06,8.96,,,
"USR0000AZAR","1990-02-18",33.08,26.06,,,
"USR0000AZAR","1990-02-19",32.00,24.08,,,
"USR0000AZAR","1990-02-20",33.98,26.96,,,
"USR0000AZAR","1990-02-21",35.96,33.08,,,
"USR0000AZAR","1990-02-22",37.94,33.98,,,
"USR0000AZAR","1990-02-23",41.00,37.04,,,
"USR0000AZAR","1990-02-24",41.00,33.08,,,
"USR0000AZAR","1990-02-25",42.98,32.00,,,
"USR0000AZAR","1990-02-26",44.06,28.94,,,
"USR0000AZAR","1990-02-27",42.98,35.06,,,
"USR0000AZAR","1990-02-28",39.92,35.06,,,
"USR0000AZAR","1990-03-01",44.96,35.96,,,
"USR0000AZAR","1990-03-02",44.96,39.92,,,
"USR0000AZAR","1990-03-03",44.06,39.92,,,
"USR0000AZAR","1990-03-04",41.00,39.92,,,
"USR0000AZAR","1990-03-05",39.92,33.98,,,
"USR0000AZAR","1990-03-06",33.98,26.96,,,
"USR0000AZAR","1990-03-07",42.08,23.00,,,
"USR0000AZAR","1990-03-08",37.04,21.92,,,
"USR0000AZAR","1990-03-09",35.96,30.02,,,
"USR0000AZAR","1990-03-10",42.08,28.94,,,
"USR0000AZAR","1990-03-11",41.00,28.04,,,
"USR0000AZAR","1990-03-12",37.94,32.00,,,
"USR0000AZAR","1990-03-13",39.02,35.06,,,
"USR0000AZAR","1990-03-14",39.02,35.06,,,
"USR0000AZAR","1990-03-15",37.94,35.06,,,
"USR0000AZAR","1990-03-16",51.08,35.96,,,
"USR0000AZAR","1990-03-17",50.00,37.94,,,
"USR0000AZAR","1990-03-18",44.96,39.02,,,
"USR0000AZAR","1990-03-19",39.02,28.04,,,
"USR0000AZAR","1990-03-20",28.04,24.98,,,
"USR0000AZAR","1990-03-21",37.94,24.08,,,
"USR0000AZAR","1990-03-22",41.00,28.04,,,
"USR0000AZAR","1990-03-23",50.00,32.00,,,
"USR0000AZAR","1990-03-24",48.02,33.98,,,
"USR0000AZAR","1990-03-25",48.02,35.96,,,
"USR0000AZAR","1990-03-26",42.98,35.96,,,
"USR0000AZAR","1990-03-27",46.04,39.02,,,
"USR0000AZAR","1990-03-28",41.00,35.96,,,
"USR0000AZAR","1990-03-29",42.08,33.98,,,
"USR0000AZAR","1990-03-30",46.94,32.00,,,
"USR0000AZAR","1990-03-31",44.06,30.92,,,
"USR0000AZAR","1990-04-01",42.98,32.00,,,
"USR0000AZAR","1990-04-02",42.98,33.98,,,
"USR0000AZAR","1990-04-03",46.94,33.08,,,
"USR0000AZAR","1990-04-04",44.96,33.98,,,
"USR0000AZAR","1990-04-05",51.98,32.00,,,
"USR0000AZAR","1990-04-06",51.98,30.02,,,
"USR0000AZAR","1990-04-07",48.02,35.06,,,
"USR0000AZAR","1990-04-08",48.02,35.06,,,
"USR0000AZAR","1990-04-09",48.92,35.96,,,
"USR0000AZAR","1990-04-10",55.94,39.02,,,
"USR0000AZAR","1990-04-11",48.92,39.92,,,
"USR0000AZAR","1990-04-12",59.00,39.92,,,
"USR0000AZAR","1990-04-13",53.96,42.08,,,
"USR0000AZAR","1990-04-14",53.96,41.00,,,
"USR0000AZAR","1990-04-15",64.94,39.92,,,
"USR0000AZAR","1990-04-16",60.98,44.96,,,
"USR0000AZAR","1990-04-17",44.96,39.92,,,
"USR0000AZAR","1990-04-18",44.96,39.92,,,
"USR0000AZAR","1990-04-19",44.96,37.04,,,
"USR0000AZAR","1990-04-20",42.08,37.94,,,
"USR0000AZAR","1990-04-21",42.08,37.04,,,
"USR0000AZAR","1990-04-22",51.98,35.96,,,
"USR0000AZAR","1990-04-23",48.02,37.04,,,
"USR0000AZAR","1990-04-24",48.92,35.96,,,
"USR0000AZAR","1990-04-25",57.92,35.96,,,
"USR0000AZAR","1990-04-26",51.98,39.02,,,
"USR0000AZAR","1990-04-27",55.94,39.02,,,
"USR0000AZAR","1990-04-28",62.96,41.00,,,
"USR0000AZAR","1990-04-29",60.08,39.02,,,
"USR0000AZAR","1990-04-30",46.04,35.96,,,
"USR0000AZAR","1990-05-01",44.96,39.02,,,
"USR0000AZAR","1990-05-02",53.06,37.94,,,
"USR0000AZAR","1990-05-03",46.94,42.08,,,
"USR0000AZAR","1990-05-04",44.06,39.02,,,
"USR0000AZAR","1990-05-05",41.00,37.04,,,
"USR0000AZAR","1990-05-06",57.92,37.94,,,
"USR0000AZAR","1990-05-07",51.98,35.96,,,
"USR0000AZAR","1990-05-08",55.94,42.08,,,
"USR0000AZAR","1990-05-09",55.94,42.08,,,
"USR0000AZAR","1990-05-10",64.04,42.08,,,
"USR0000AZAR","1990-05-11",64.04,39.92,,,
"USR0000AZAR","1990-05-12",62.96,39.92,,,
"USR0000AZAR","1990-05-13",69.08,41.00,,,
"USR0000AZAR","1990-05-14",55.94,39.92,,,
"USR0000AZAR","1990-05-15",53.06,42.98,,,
"USR0000AZAR","1990-05-16",51.98,44.96,,,
"USR0000AZAR","1990-05-17",50.00,44.06,,,
"USR0000AZAR","1990-05-18",53.06,42.98,,,
"USR0000AZAR","1990-05-19",62.06,44.06,,,
"USR0000AZAR","1990-05-20",71.96,46.94,,,
"USR0000AZAR","1990-05-21",55.04,42.98,,,
"USR0000AZAR","1990-05-22",57.92,41.00,,,
"USR0000AZAR","1990-05-23",53.96,37.94,,,
"USR0000AZAR","1990-05-24",53.96,42.98,,,
"USR0000AZAR","1990-05-25",69.08,46.94,,,
"USR0000AZAR","1990-05-26",62.96,46.04,,,
"USR0000AZAR","1990-05-27",73.94,51.98,,,
"USR0000AZAR","1990-05-28",60.08,48.92,,,
"USR0000AZAR","1990-05-29",62.06,44.96,,,
"USR0000AZAR","1990-05-30",71.06,46.94,,,
"USR0000AZAR","1990-05-31",60.98,44.06,,,
"USR0000AZAR","1990-06-01",60.98,44.96,,,
"USR0000AZAR","1990-06-02",69.08,48.92,,,
"USR0000AZAR","1990-06-03",51.98,44.06,,,
"USR0000AZAR","1990-06-04",51.08,42.98,,,
"USR0000AZAR","1990-06-05",62.06,44.96,,,
"USR0000AZAR","1990-06-06",62.96,48.02,,,
"USR0000AZAR","1990-06-07",64.94,44.06,,,
"USR0000AZAR","1990-06-08",68.00,48.92,,,
"USR0000AZAR","1990-06-09",62.96,46.94,,,
"USR0000AZAR","1990-06-10",71.06,46.04,,,
"USR0000AZAR","1990-06-11",60.98,46.04,,,
"USR0000AZAR","1990-06-12",66.92,46.94,,,
"USR0000AZAR","1990-06-13",77.00,50.00,,,
"USR0000AZAR","1990-06-14",62.06,44.96,,,
"USR0000AZAR","1990-06-15",51.98,44.96,,,
"USR0000AZAR","1990-06-16",57.02,46.04,,,
"USR0000AZAR","1990-06-17",53.06,46.94,,,
"USR0000AZAR","1990-06-18",60.08,48.02,,,
"USR0000AZAR","1990-06-19",62.06,46.94,,,
"USR0000AZAR","1990-06-20",53.06,50.00,,,
"USR0000AZAR","1990-06-21",53.96,46.04,,,
"USR0000AZAR","1990-06-22",57.02,44.06,,,
"USR0000AZAR","1990-06-23",57.02,44.06,,,
"USR0000AZAR","1990-06-24",60.98,44.96,,,
"USR0000AZAR","1990-06-25",62.96,50.00,,,
"USR0000AZAR","1990-06-26",60.08,48.92,,,
"USR0000AZAR","1990-06-27",69.98,50.00,,,
"USR0000AZAR","1990-06-28",66.02,51.08,,,
"USR0000AZAR","1990-06-29",77.00,53.06,,,
"USR0000AZAR","1990-06-30",64.94,51.08,,,
"USR0000AZAR","1990-07-01",60.98,51.08,,,
"USR0000AZAR","1990-07-02",68.00,51.08,,,
"USR0000AZAR","1990-07-03",71.06,51.98,,,
"USR0000AZAR","1990-07-04",78.08,55.94,,,
"USR0000AZAR","1990-07-05",75.92,57.02,,,
"USR0000AZAR","1990-07-06",75.02,53.96,,,
"USR0000AZAR","1990-07-07",57.92,53.06,,,
"USR0000AZAR","1990-07-08",62.06,51.98,,,
"USR0000AZAR","1990-07-09",55.04,48.92,,,
"USR0000AZAR","1990-07-10",55.04,48.92,,,
"USR0000AZAR","1990-07-11",64.94,48.92,,,
"USR0000AZAR","1990-07-12",59.00,46.94,,,
"USR0000AZAR","1990-07-13",68.00,44.96,,,
"USR0000AZAR","1990-07-14",64.94,50.00,,,
"USR0000AZAR","1990-07-15",53.06,46.94,,,
"USR0000AZAR","1990-07-16",60.98,46.94,,,
"USR0000AZAR","1990-07-17",66.02,50.00,,,
"USR0000AZAR","1990-07-18",80.96,51.98,,,
"USR0000AZAR","1990-07-19",82.04,57.02,,,
"USR0000AZAR","1990-07-20",89.06,59.00,,,
"USR0000AZAR","1990-07-21",86.00,59.00,,,
"USR0000AZAR","1990-07-22",84.92,51.98,,,
"USR0000AZAR","1990-07-23",78.08,50.00,,,
"USR0000AZAR","1990-07-24",78.98,50.00,,,
"USR0000AZAR","1990-07-25",64.94,50.00,,,
"USR0000AZAR","1990-07-26",57.92,50.00,,,
"USR0000AZAR","1990-07-27",69.98,50.00,,,
"USR0000AZAR","1990-07-28",77.00,53.06,,,
"USR0000AZAR","1990-07-29",80.06,51.98,,,
"USR0000AZAR","1990-07-30",62.96,53.06,,,
"USR0000AZAR","1990-07-31",64.94,50.00,,,
"USR0000AZAR","1990-08-01",64.94,50.00,,,
"USR0000AZAR","1990-08-02",57.02,50.00,,,
"USR0000AZAR","1990-08-03",60.08,55.04,,,
"USR0000AZAR","1990-08-04",64.04,55.04,,,
"USR0000AZAR","1990-08-05",59.00,51.08,,,
"USR0000AZAR","1990-08-06",57.92,48.92,,,
"USR0000AZAR","1990-08-07",55.94,50.00,,,
"USR0000AZAR","1990-08-08",60.98,53.96,,,
"USR0000AZAR","1990-08-09",62.06,55.94,,,
"USR0000AZAR","1990-08-10",80.06,57.02,,,
"USR0000AZAR","1990-08-11",86.00,60.98,,,
"USR0000AZAR","1990-08-12",86.00,66.02,,,
"USR0000AZAR","1990-08-13",64.94,53.96,,,
"USR0000AZAR","1990-08-14",75.02,53.96,,,
"USR0000AZAR","1990-08-15",69.98,51.98,,,
"USR0000AZAR","1990-08-16",78.08,55.04,,,
"USR0000AZAR","1990-08-17",75.92,55.04,,,
"USR0000AZAR","1990-08-18",73.94,53.06,,,
"USR0000AZAR","1990-08-19",62.96,55.94,,,
"USR0000AZAR","1990-08-20",62.96,55.94,,,
"USR0000AZAR","1990-08-21",64.94,48.92,,,
"USR0000AZAR","1990-08-22",66.02,44.96,,,
"USR0000AZAR","1990-08-23",71.96,48.02,,,
"USR0000AZAR","1990-08-24",69.08,48.02,,,
"USR0000AZAR","1990-08-25",75.92,51.08,,,
"USR0000AZAR","1990-08-26",64.94,53.06,,,
"USR0000AZAR","1990-08-27",55.94,51.98,,,
"USR0000AZAR","1990-08-28",55.94,53.06,,,
"USR0000AZAR","1990-08-29",59.00,50.00,,,
"USR0000AZAR","1990-08-30",64.94,48.92,,,
"USR0000AZAR","1990-08-31",62.06,48.02,,,
"USR0000AZAR","1990-09-01",62.06,48.02,,,
"USR0000AZAR","1990-09-02",55.04,48.02,,,
"USR0000AZAR","1990-09-03",59.00,50.00,,,
"USR0000AZAR","1990-09-04",57.02,50.00,,,
"USR0000AZAR","1990-09-05",62.06,48.02,,,
"USR0000AZAR","1990-09-06",62.06,46.04,,,
"USR0000AZAR","1990-09-07",64.04,50.00,,,
"USR0000AZAR","1990-09-08",60.98,46.94,,,
"USR0000AZAR","1990-09-09",60.08,46.04,,,
"USR0000AZAR","1990-09-10",55.04,50.00,,,
"USR0000AZAR","1990-09-11",55.94,48.02,,,
"USR0000AZAR","1990-09-12",60.98,46.04,,,
"USR0000AZAR","1990-09-13",53.96,51.08,,,
"USR0000AZAR","1990-09-14",66.92,51.98,,,
"USR0000AZAR","1990-09-15",66.02,44.96,,,
"USR0000AZAR","1990-09-16",62.06,44.06,,,
"USR0000AZAR","1990-09-17",51.08,46.04,,,
"USR0000AZAR","1990-09-18",57.02,44.96,,,
"USR0000AZAR","1990-09-19",51.98,46.94,,,
"USR0000AZAR","1990-09-20",53.06,46.94,,,
"USR0000AZAR","1990-09-21",57.92,53.06,,,
"USR0000AZAR","1990-09-22",60.98,53.06,,,
"USR0000AZAR","1990-09-23",53.06,50.00,,,
"USR0000AZAR","1990-09-24",53.06,46.04,,,
"USR0000AZAR","1990-09-25",55.94,42.98,,,
"USR0000AZAR","1990-09-26",57.92,39.92,,,
"USR0000AZAR","1990-09-27",55.04,48.92,,,
"USR0000AZAR","1990-09-28",55.04,44.96,,,
"USR0000AZAR","1990-09-29",48.02,42.98,,,
"USR0000AZAR","1990-09-30",51.08,42.98,,,
"USR0000AZAR","1990-10-01",53.96,42.08,,,
"USR0000AZAR","1990-10-02",48.02,37.04,,,
"USR0000AZAR","1990-10-03",51.08,35.06,,,
"USR0000AZAR","1990-10-04",53.96,32.00,,,
"USR0000AZAR","1990-10-05",50.00,33.98,,,
"USR0000AZAR","1990-10-06",44.96,39.92,,,
"USR0000AZAR","1990-10-07",50.00,44.06,,,
"USR0000AZAR","1990-10-08",51.98,42.08,,,
"USR0000AZAR","1990-10-09",48.92,37.94,,,
"USR0000AZAR","1990-10-10",46.94,35.06,,,
"USR0000AZAR","1990-10-11",44.06,39.92,,,
"USR0000AZAR","1990-10-12",44.06,37.94,,,
"USR0000AZAR","1990-10-13",46.94,35.06,,,
"USR0000AZAR","1990-10-14",42.98,33.98,,,
"USR0000AZAR","1990-10-15",39.02,32.00,,,
"USR0000AZAR","1990-10-16",39.92,33.08,,,
"USR0000AZAR","1990-10-17",37.04,33.08,,,
"USR0000AZAR","1990-10-18",46.94,30.02,,,
"USR0000AZAR","1990-10-19",42.98,33.98,,,
"USR0000AZAR","1990-10-20",42.98,37.94,,,
"USR0000AZAR","1990-10-21",39.92,37.94,,,
"USR0000AZAR","1990-10-22",44.06,37.94,,,
"USR0000AZAR","1990-10-23",46.94,39.92,,,
"USR0000AZAR","1990-10-24",42.08,35.96,,,
"USR0000AZAR","1990-10-25",44.06,35.06,,,
"USR0000AZAR","1990-10-26",44.96,37.94,,,
"USR0000AZAR","1990-10-27",44.06,35.96,,,
"USR0000AZAR","1990-10-28",39.92,35.06,,,
"USR0000AZAR","1990-10-29",41.00,35.06,,,
"USR0000AZAR","1990-10-30",48.92,33.08,,,
"USR0000AZAR","1990-10-31",39.92,33.98,,,
"USR0000AZAR","1990-11-01",37.94,35.96,,,
"USR0000AZAR","1990-11-02",39.02,37.04,,,
"USR0000AZAR","1990-11-03",35.96,30.92,,,
"USR0000AZAR","1990-11-04",39.02,28.04,,,
"USR0000AZAR","1990-11-05",42.98,26.06,,,
"USR0000AZAR","1990-11-06",41.00,33.08,,,
"USR0000AZAR","1990-11-07",39.92,26.06,,,
"USR0000AZAR","1990-11-08",30.92,23.00,,,
"USR0000AZAR","1990-11-09",28.04,21.92,,,
"USR0000AZAR","1990-11-10",30.92,21.02,,,
"USR0000AZAR","1990-11-11",21.92,15.98,,,
"USR0000AZAR","1990-11-12",37.94,17.96,,,
"USR0000AZAR","1990-11-13",35.06,30.92,,,
"USR0000AZAR","1990-11-14",37.04,30.92,,,
"USR0000AZAR","1990-11-15",41.00,33.08,,,
"USR0000AZAR","1990-11-16",39.02,35.06,,,
"USR0000AZAR","1990-11-17",37.94,33.98,,,
"USR0000AZAR","1990-11-18",39.92,32.00,,,
"USR0000AZAR","1990-11-19",32.00,19.04,,,
"USR0000AZAR","1990-11-20",26.96,17.96,,,
"USR0000AZAR","1990-11-21",21.92,19.04,,,
"USR0000AZAR","1990-11-22",21.92,17.96,,,
"USR0000AZAR","1990-11-23",21.02,10.94,,,
"USR0000AZAR","1990-11-24",24.98,19.94,,,
"USR0000AZAR","1990-11-25",32.00,17.96,,,
"USR0000AZAR","1990-11-26",33.98,32.00,,,
"USR0000AZAR","1990-11-27",33.98,32.00,,,
"USR0000AZAR","1990-11-28",33.98,24.98,,,
"USR0000AZAR","1990-11-29",26.96,21.92,,,
"USR0000AZAR","1990-11-30",26.96,24.08,,,
"USR0000AZAR","1990-12-01",24.98,8.06,,,
"USR0000AZAR","1990-12-02",35.06,8.06,,,
"USR0000AZAR","1990-12-03",33.98,24.98,,,
"USR0000AZAR","1990-12-04",37.94,26.96,,,
"USR0000AZAR","1990-12-05",39.92,33.98,,,
"USR0000AZAR","1990-12-06",42.98,37.04,,,
"USR0000AZAR","1990-12-07",37.04,32.00,,,
"USR0000AZAR","1990-12-08",35.96,32.00,,,
"USR0000AZAR","1990-12-09",35.06,32.00,,,
"USR0000AZAR","1990-12-10",37.04,26.06,,,
"USR0000AZAR","1990-12-11",33.08,26.06,,,
"USR0000AZAR","1990-12-12",32.00,28.94,,,
"USR0000AZAR","1990-12-13",37.04,28.94,,,
"USR0000AZAR","1990-12-14",32.00,26.06,,,
"USR0000AZAR","1990-12-15",30.02,24.98,,,
"USR0000AZAR","1990-12-16",39.02,30.92,,,
"USR0000AZAR","1990-12-17",33.08,10.04,,,
"USR0000AZAR","1990-12-18",19.04,6.98,,,
"USR0000AZAR","1990-12-19",17.96,8.96,,,
"USR0000AZAR","1990-12-20",24.98,12.02,,,
"USR0000AZAR","1990-12-21",28.04,24.08,,,
"USR0000AZAR","1990-12-22",26.96,21.02,,,
"USR0000AZAR","1990-12-23",33.98,26.96,,,
"USR0000AZAR","1990-12-24",37.04,32.00,,,
"USR0000AZAR","1990-12-25",39.92,35.96,,,
"USR0000AZAR","1990-12-26",37.94,28.94,,,
"USR0000AZAR","1990-12-27",26.96,6.98,,,
"USR0000AZAR","1990-12-28",19.04,6.08,,,
"USR0000AZAR","1990-12-29",30.92,19.94,,,
"USR0000AZAR","1990-12-30",24.98,17.06,,,
"USR0000AZAR","1990-12-31",17.06,8.96,,,
"USR0000AZAR","1991-01-01",10.94,6.08,,,
"USR0000AZAR","1991-01-02",15.98,8.06,,,
"USR0000AZAR","1991-01-03",19.94,12.92,,,
"USR0000AZAR","1991-01-04",21.92,10.94,,,
"USR0000AZAR","1991-01-05",19.94,8.96,,,
"USR0000AZAR","1991-01-06",19.04,6.98,,,
"USR0000AZAR","1991-01-07",21.02,12.92,,,
"USR0000AZAR","1991-01-08",19.04,8.06,,,
"USR0000AZAR","1991-01-09",21.02,6.08,,,
"USR0000AZAR","1991-01-10",33.08,12.02,,,
"USR0000AZAR","1991-01-11",37.94,30.02,,,
"USR0000AZAR","1991-01-12",39.02,35.06,,,
"USR0000AZAR","1991-01-13",37.94,35.06,,,
"USR0000AZAR","1991-01-14",37.04,32.00,,,
"USR0000AZAR","1991-01-15",37.94,26.96,,,
"USR0000AZAR","1991-01-16",42.08,39.02,,,
"USR0000AZAR","1991-01-17",42.98,26.96,,,
"USR0000AZAR","1991-01-18",37.04,24.98,,,
"USR0000AZAR","1991-01-19",37.94,28.94,,,
"USR0000AZAR","1991-01-20",39.92,35.96,,,
"USR0000AZAR","1991-01-21",37.94,30.92,,,
"USR0000AZAR","1991-01-22",35.96,28.94,,,
"USR0000AZAR","1991-01-23",37.94,28.94,,,
"USR0000AZAR","1991-01-24",35.06,26.96,,,
"USR0000AZAR","1991-01-25",37.04,26.06,,,
"USR0000AZAR","1991-01-26",41.00,24.08,,,
"USR0000AZAR","1991-01-27",35.96,21.02,,,
"USR0000AZAR","1991-01-28",37.94,24.08,,,
"USR0000AZAR","1991-01-29",32.00,30.02,,,
"USR0000AZAR","1991-01-30",35.06,32.00,,,
"USR0000AZAR","1991-01-31",42.08,33.98,,,
"USR0000AZAR","1991-02-01",44.06,39.92,,,
"USR0000AZAR","1991-02-02",39.92,30.02,,,
"USR0000AZAR","1991-02-03",39.02,32.00,,,
"USR0000AZAR","1991-02-04",39.92,30.02,,,
"USR0000AZAR","1991-02-05",39.02,30.02,,,
"USR0000AZAR","1991-02-06",37.94,24.98,,,
"USR0000AZAR","1991-02-07",33.98,23.00,,,
"USR0000AZAR","1991-02-08",33.98,23.00,,,
"USR0000AZAR","1991-02-09",42.98,30.92,,,
"USR0000AZAR","1991-02-10",46.94,42.08,,,
"USR0000AZAR","1991-02-11",46.04,39.92,,,
"USR0000AZAR","1991-02-12",42.08,39.92,,,
"USR0000AZAR","1991-02-13",44.96,39.92,,,
"USR0000AZAR","1991-02-14",46.04,41.00,,,
"USR0000AZAR","1991-02-15",41.00,32.00,,,
"USR0000AZAR","1991-02-16",35.96,33.08,,,
"USR0000AZAR","1991-02-17",35.96,32.00,,,
"USR0000AZAR","1991-02-18",39.92,32.00,,,
"USR0000AZAR","1991-02-19",39.92,28.04,,,
"USR0000AZAR","1991-02-20",30.92,26.96,,,
"USR0000AZAR","1991-02-21",35.96,28.94,,,
"USR0000AZAR","1991-02-22",35.96,33.08,,,
"USR0000AZAR","1991-02-23",37.94,35.96,,,
"USR0000AZAR","1991-02-24",42.98,37.04,,,
"USR0000AZAR","1991-02-25",51.98,35.96,,,
"USR0000AZAR","1991-02-26",53.06,35.96,,,
"USR0000AZAR","1991-02-27",57.02,39.02,,,
"USR0000AZAR","1991-02-28",39.02,26.96,,,
"USR0000AZAR","1991-03-01",26.06,21.02,,,
"USR0000AZAR","1991-03-02",30.02,21.02,,,
"USR0000AZAR","1991-03-03",32.00,19.94,,,
"USR0000AZAR","1991-03-04",39.92,19.04,,,
"USR0000AZAR","1991-03-05",39.92,30.92,,,
"USR0000AZAR","1991-03-06",35.96,30.02,,,
"USR0000AZAR","1991-03-07",39.92,30.92,,,
"USR0000AZAR","1991-03-08",35.96,28.94,,,
"USR0000AZAR","1991-03-09",39.02,26.96,,,
"USR0000AZAR","1991-03-10",37.94,24.08,,,
"USR0000AZAR","1991-03-11",39.02,21.92,,,
"USR0000AZAR","1991-03-12",39.02,26.96,,,
"USR0000AZAR","1991-03-13",33.08,32.00,,,
"USR0000AZAR","1991-03-14",39.92,30.02,,,
"USR0000AZAR","1991-03-15",37.04,30.02,,,
"USR0000AZAR","1991-03-16",37.94,35.06,,,
"USR0000AZAR","1991-03-17",35.96,32.00,,,
"USR0000AZAR","1991-03-18",33.08,30.92,,,
"USR0000AZAR","1991-03-19",41.00,28.04,,,
"USR0000AZAR","1991-03-20",44.96,28.04,,,
"USR0000AZAR","1991-03-21",42.08,24.98,,,
"USR0000AZAR","1991-03-22",42.08,24.08,,,
"USR0000AZAR","1991-03-23",35.96,26.06,,,
"USR0000AZAR","1991-03-24",42.98,24.08,,,
"USR0000AZAR","1991-03-25",46.04,26.96,,,
"USR0000AZAR","1991-03-26",48.02,30.92,,,
"USR0000AZAR","1991-03-27",37.94,33.98,,,
"USR0000AZAR","1991-03-28",37.04,33.08,,,
"USR0000AZAR","1991-03-29",35.96,32.00,,,
"USR0000AZAR","1991-03-30",39.92,30.92,,,
"USR0000AZAR","1991-03-31",39.92,28.94,,,
"USR0000AZAR","1991-04-01",39.02,28.04,,,
"USR0000AZAR","1991-04-02",37.94,32.00,,,
"USR0000AZAR","1991-04-03",42.08,35.96,,,
"USR0000AZAR","1991-04-04",39.92,32.00,,,